Simultaneous Nadir Overpasses (SNOs) Predictions

Prediction of SNOs between GOES-14 and AQUA Satellite Orbit:

Table of predicted SNOs for the next 14.0 days since TLE Epoch: 7/8/2023
Index Date Time (GOES-14) GOES-14 Lat,Lon AQUA Lat,Lon Distance(km) Time Diff (sec)
1 07/08/2023 08:50:56 -0.19,-108.66 -0.99,-104.89 428.66 80
2 07/08/2023 21:09:09 0.22,-108.56 -0.10,-109.95 158.16 80
3 07/10/2023 20:57:37 0.22,-108.57 0.68,-106.49 236.51 80
4 07/11/2023 09:15:41 -0.25,-108.67 0.37,-111.51 323.63 80
5 07/13/2023 09:04:08 -0.25,-108.67 -0.38,-108.05 70.84 80
6 07/15/2023 08:49:54 -0.25,-108.67 -1.11,-104.57 465.32 80
7 07/15/2023 21:08:07 0.28,-108.56 0.05,-109.63 122.30 80
8 07/17/2023 20:56:33 0.27,-108.56 0.81,-106.17 272.65 80
9 07/18/2023 09:14:36 -0.30,-108.67 0.22,-111.19 286.55 80
10 07/20/2023 09:03:02 -0.30,-108.67 -0.52,-107.72 108.85 80
11 07/20/2023 21:21:13 0.33,-108.55 -0.57,-112.77 479.38 80
